CW9676 Weather Reports


Display with metric or nautical units.
time (UTC)temp
F
wind
direction
speed
MPH
gust
MPH
rain 1hr
in
rain 24hr
in
rain mn
in
humidity
%
barometer
mb
20260902162647 78 156 6.0 12.0 0.00 0.00 0.00 39 1009.6
20260902161704 78 157 5.0 12.0 0.00 0.00 0.00 40 1009.6
20260902160729 77 4 5.0 12.0 0.00 0.00 0.00 41 1009.6
20260902155658 77 210 5.0 11.0 0.00 0.00 0.00 42 1009.5
20260902153516 77 160 4.0 10.0 0.00 0.00 0.00 40 1009.4
20260902152459 76 202 5.0 12.0 0.00 0.00 0.00 40 1009.4
20260902150325 74 230 5.0 11.0 0.00 0.00 0.00 44 1009.4
20260902145344 73 213 5.0 11.0 0.00 0.00 0.00 44 1009.5
20260902144346 73 215 6.0 11.0 0.00 0.00 0.00 43 1009.5
20260902143324 72 233 7.0 12.0 0.00 0.00 0.00 42 1009.4
20260902142300 71 217 7.0 14.0 0.00 0.00 0.00 41 1009.4
20260902141324 71 212 7.0 14.0 0.00 0.00 0.00 43 1009.3
20260902135209 68 201 5.0 9.0 0.00 0.00 0.00 50 1009.3
20260902134146 67 4 4.0 11.0 0.00 0.00 0.00 52 1009.3
20260902133153 66 4 5.0 11.0 0.00 0.00 0.00 53 1009.3
20260902132138 66 214 5.0 10.0 0.00 0.00 0.00 54 1008.9
20260902131120 66 194 5.0 9.0 0.00 0.00 0.00 54 1008.9
20260902124914 66 177 5.0 10.0 0.00 0.00 0.00 55 1008.6
20260902123917 66 223 5.0 9.0 0.00 0.00 0.00 55 1008.5
20260902122942 66 213 5.0 10.0 0.00 0.00 0.00 54 1008.3
20260902121930 66 216 6.0 10.0 0.00 0.00 0.00 54 1008.1
20260902120946 66 4 5.0 10.0 0.00 0.00 0.00 55 1008.1
20260902120006 67 213 5.0 10.0 0.00 0.00 0.00 55 1008.2
20260902114959 67 216 6.0 10.0 0.00 0.00 0.00 55 1008.2
20260902113954 67 213 6.0 10.0 0.00 0.00 0.00 55 1008.2
20260902112956 67 4 5.0 9.0 0.00 0.00 0.00 55 1008.2
20260902111938 67 214 5.0 8.0 0.00 0.00 0.00 56 1008.2
20260902110905 67 195 4.0 8.0 0.00 0.00 0.00 55 1008.2
20260902105920 68 4 5.0 9.0 0.00 0.00 0.00 55 1008.1
20260902104918 68 221 5.0 10.0 0.00 0.00 0.00 54 1008.1
20260902103849 68 215 5.0 10.0 0.00 0.00 0.00 54 1008.1
20260902100656 68 4 4.0 9.0 0.00 0.00 0.00 53 1008.2
20260902095645 68 173 5.0 8.0 0.00 0.00 0.00 52 1008.1
20260902094653 68 219 5.0 8.0 0.00 0.00 0.00 52 1008.2
20260902093646 68 203 5.0 9.0 0.00 0.00 0.00 52 1008.2
20260902091433 67 4 3.0 6.0 0.00 0.00 0.00 53 1008.3
20260902090428 67 214 4.0 6.0 0.00 0.00 0.00 53 1008.2
20260902085407 67 229 4.0 6.0 0.00 0.00 0.00 53 1008.2
20260902083246 68 221 3.0 6.0 0.00 0.00 0.00 51 1008.3
20260902082247 67 4 4.0 6.0 0.00 0.00 0.00 51 1008.3
20260902081223 68 215 3.0 8.0 0.00 0.00 0.00 50 1008.4
20260902080215 69 4 4.0 8.0 0.00 0.00 0.00 49 1008.4
20260902074035 69 215 3.0 6.0 0.00 0.00 0.00 49 1008.5
20260902073044 69 223 3.0 5.0 0.00 0.00 0.00 49 1008.5
20260902072020 69 214 3.0 5.0 0.00 0.00 0.00 49 1008.5
20260902070956 69 221 3.0 5.0 0.00 0.00 0.00 49 1008.4
20260902065946 69 223 3.0 5.0 0.00 0.00 0.00 49 1008.5
20260902064923 69 215 4.0 6.0 0.00 0.00 0.00 49 1008.5
20260902063915 69 212 4.0 6.0 0.00 0.00 0.00 49 1008.5
20260902062908 69 221 3.0 5.0 0.00 0.00 0.00 48 1008.5
20260902060723 69 212 3.0 5.0 0.00 0.00 0.00 48 1008.6
20260902054626 69 218 2.0 5.0 0.00 0.00 0.00 48 1008.7
20260902053621 70 4 2.0 4.0 0.00 0.00 0.00 48 1008.7
20260902052550 70 4 2.0 5.0 0.00 0.00 0.00 47 1008.6
20260902051518 71 215 3.0 6.0 0.00 0.00 0.00 47 1008.8
20260902050459 71 194 3.0 7.0 0.00 0.00 0.00 46 1008.8
20260902045519 71 219 4.0 7.0 0.00 0.00 0.00 46 1008.8
20260902044449 71 225 3.0 8.0 0.00 0.00 0.00 46 1008.8
20260902043418 72 191 4.0 10.0 0.00 0.00 0.00 46 1008.7
20260902041215 72 175 3.0 6.0 0.00 0.00 0.00 46 1008.6
20260902035054 72 4 4.0 9.0 0.00 0.00 0.00 45 1008.4
20260902034022 72 195 3.0 9.0 0.00 0.00 0.00 45 1008.3
20260902030752 74 4 4.0 9.0 0.00 0.00 0.00 43 1007.7
20260902025728 74 195 2.0 6.0 0.00 0.00 0.00 43 1007.5
20260902024737 74 210 3.0 5.0 0.00 0.00 0.00 43 1007.3
20260902023734 75 190 3.0 9.0 0.00 0.00 0.00 42 1007.0
20260902022753 75 4 4.0 9.0 0.00 0.00 0.00 42 1006.9
20260902021815 75 200 4.0 9.0 0.00 0.00 0.00 41 1006.8
20260902020747 76 203 4.0 9.0 0.00 0.00 0.00 41 1006.7
20260902015722 77 191 4.0 11.0 0.00 0.00 0.00 40 1006.6
20260902014733 77 161 4.0 11.0 0.00 0.00 0.00 39 1006.4
20260902013735 78 213 3.0 6.0 0.00 0.00 0.00 37 1006.3
20260902012743 79 179 3.0 6.0 0.00 0.00 0.00 35 1006.2
20260902011717 80 196 2.0 8.0 0.00 0.00 0.00 34 1006.3
20260902010740 81 189 4.0 8.0 0.00 0.00 0.00 34 1006.3
20260902005717 80 160 3.0 11.0 0.00 0.00 0.00 35 1006.3
20260902004647 80 200 5.0 11.0 0.00 0.00 0.00 36 1006.3
20260902003632 81 169 5.0 9.0 0.00 0.00 0.00 34 1006.3
20260902001438 82 146 6.0 13.0 0.00 0.00 0.00 33 1006.4
20260902000455 82 149 6.0 13.0 0.00 0.00 0.00 34 1006.6
20260901235422 82 159 6.0 13.0 0.00 0.00 0.00 35 1006.6
20260901234419 83 4 5.0 14.0 0.00 0.00 0.00 33 1006.6
20260901233354 83 146 8.0 14.0 0.00 0.00 0.00 32 1006.6
20260901232322 85 127 5.0 15.0 0.00 0.00 0.00 32 1006.5
20260901231341 84 143 8.0 15.0 0.00 0.00 0.00 30 1006.6
20260901230338 84 148 6.0 14.0 0.00 0.00 0.00 32 1006.6
20260901225324 84 177 7.0 15.0 0.00 0.00 0.00 31 1006.7
20260901224256 84 96 7.0 15.0 0.00 0.00 0.00 31 1006.8
20260901223245 84 156 6.0 13.0 0.00 0.00 0.00 31 1006.7
20260901222251 84 154 6.0 15.0 0.00 0.00 0.00 32 1006.9
20260901220152 84 180 3.0 18.0 0.00 0.00 0.00 33 1006.9
20260901214030 84 156 7.0 13.0 0.00 0.00 0.00 33 1007.1
20260901213030 84 163 7.0 12.0 0.00 0.00 0.00 33 1007.2
20260901210833 85 163 5.0 13.0 0.00 0.00 0.00 34 1007.5
20260901205802 83 155 3.0 14.0 0.00 0.00 0.00 34 1007.7
20260901204804 83 137 6.0 14.0 0.00 0.00 0.00 35 1007.9
20260901203743 83 131 4.0 13.0 0.00 0.00 0.00 36 1008.0
20260901202756 82 238 5.0 13.0 0.00 0.00 0.00 37 1008.1
20260901200709 82 138 3.0 10.0 0.00 0.00 0.00 38 1008.4
20260901195721 81 107 3.0 10.0 0.00 0.00 0.00 39 1008.4
20260901194711 79 137 4.0 10.0 0.00 0.00 0.00 41 1008.6
20260901193638 79 217 2.0 13.0 0.00 0.00 0.00 42 1008.7
20260901192604 78 162 7.0 13.0 0.00 0.00 0.00 43 1008.8
20260901191537 78 140 6.0 12.0 0.00 0.00 0.00 43 1008.8
20260901190538 79 184 4.0 10.0 0.00 0.00 0.00 42 1008.8
20260901185538 78 134 5.0 12.0 0.00 0.00 0.00 44 1008.9
20260901184601 78 151 5.0 12.0 0.00 0.00 0.00 44 1009.0
20260901183543 78 184 4.0 11.0 0.00 0.00 0.00 44 1009.0
20260901182550 77 50 4.0 10.0 0.00 0.00 0.00 45 1009.2
20260901181610 78 153 5.0 10.0 0.00 0.00 0.00 45 1009.2
20260901175522 79 122 4.0 9.0 0.00 0.00 0.00 42 1009.4
20260901173316 77 138 5.0 13.0 0.00 0.00 0.00 44 1009.4
20260901172248 77 197 6.0 13.0 0.00 0.00 0.00 45 1009.5
20260901171226 77 131 5.0 10.0 0.00 0.00 0.00 46 1009.6
20260901170230 76 4 6.0 11.0 0.00 0.00 0.00 49 1009.5
20260901165234 74 155 5.0 11.0 0.00 0.00 0.00 52 1009.5